Location: Izdebno
(52.6670°N, 16.2170°E)
Time: 18:58:23
(UTC+01:00)

Transit 2A - Pass Details

Date: 05 February 2023
Orbit: 591 x 964 km, 66.7° (Epoch: 21 March)

Event Time Altitude Azimuth Distance (km) Brightness Sun altitude
Rises 19:42:44 0° 278° (W) 3,187 10.5 -26.7°
Reaches altitude 10° 19:45:31 10° 293° (WNW) 2,333 9.4 -27.1°
Maximum altitude 19:49:45 23° 345° (NNW) 1,710 8.0 -27.7°
Enters shadow 19:51:49 19° 14° (NNE) 1,930 8.0 -28.0°
Drops below altitude 10° 19:54:18 10° 36° (NE) 2,534 - -28.4°
Sets 19:57:29 0° 51° (NE) 3,535 - -28.8°
